Location: Newark
(42.8481°N, 0.4872°E)
Time: 00:08:58
(UTC+00:00)

Transit 2A - Pass Details

Date: 05 November 2020
Orbit: 595 x 963 km, 66.7° (Epoch: 03 December)

Event Time Altitude Azimuth Distance (km) Brightness Sun altitude
Rises 09:13:01 0° 316° (NW) 3,340 8.7 22.1°
Reaches altitude 10° 09:16:09 10° 300° (WNW) 2,329 8.0 22.4°
Maximum altitude 09:19:50 19° 256° (WSW) 1,682 7.7 22.9°
Drops below altitude 10° 09:23:18 10° 210° (SSW) 2,148 8.7 23.2°
Sets 09:26:04 0° 193° (SSW) 2,996 9.7 23.5°
